Content
SEND FEEDBACK

Daily
Averages
Monthly
Summary
United States of America

LARIMORE, NORTH DAKOTA


Home > North America > United States > North Dakota
Elevation: 1124 feet     Latitude: 47 57N     Longitude: 097 40W

WEATHER
 
SELECT A DAY
Number of Records: 198,304;   Date Range: 1/1/95 - 8/12/14
 
SHARE

PRINT THIS DATA

[ ← Previous Day ]
WEATHER ALMANAC - MARCH 13, 2014
[ Next Day → ]
[ °C ]   °F
Weather ElementAverageHighLow
Temperature36 °F48.2 °F (4:53 pm)21.9 °F (2:53 am)
Dewpoint29.4 °F35.6 °F (4:53 pm)19.9 °F (2:53 am)
Humidity77.9 %92 % (1:53 am)58 % (3:53 pm)
Barometer29.56 in29.76 in (1:53 am)29.42 in (4:53 pm)
Wind Speed12.1 mph21.9 mph (10:53 pm)
Wind Gust24.2 mph (3:53 pm)
Weather ElementAverage
Visibility10 mi
Wind DirectionWSW (245.7 °)

Weather ElementTotal
Precipitation---
Heating Degree Days30 (Base 65)
Averaged from 23 records on March 13, 2014
WEATHER CONDITIONS BREAKOUT
WIND DIRECTION BREAKOUT
WEATHER BY HOUR - MARCH 13, 2014
[ °C ]   °F
Local TimeTemperatureDewpointHumidityBarometerVisibilityWind DirectionWind SpeedGust SpeedPrecipitationEventsConditions
1:53 AM25.0 °F23.0 °F92 %29.76 in10.0 miSW (220°)6.9 mphClear
2:53 AM21.9 °F19.9 °F92 %29.74 in10.0 miSSW (210°)8.1 mphClear
3:53 AM25.0 °F23.0 °F92 %29.73 in10.0 miSW (230°)8.1 mphClear
4:53 AM27.0 °F24.1 °F89 %29.71 in10.0 miSW (220°)9.2 mphClear
5:53 AM24.1 °F21.0 °F88 %29.68 in10.0 miSSW (200°)8.1 mphClear
6:53 AM26.1 °F23.0 °F88 %29.65 in10.0 miSouth (190°)10.4 mphClear
7:53 AM26.1 °F23.0 °F88 %29.64 in10.0 miSSW (210°)9.2 mphPartly Cloudy
8:53 AM33.1 °F28.0 °F82 %29.60 in10.0 miSW (220°)11.5 mphPartly Cloudy
9:53 AM36.0 °F30.0 °F79 %29.57 in10.0 miSW (230°)12.7 mphScattered Clouds
10:53 AM39.2 °F30.2 °F70 %29.53 in10.0 miWSW (240°)12.7 mphPartly Cloudy
11:53 AM41.0 °F32.0 °F70 %29.51 in10.0 miSW (220°)9.2 mphPartly Cloudy
12:53 PM44.1 °F34.0 °F68 %29.51 in10.0 miSSW (200°)5.8 mphPartly Cloudy
1:53 PM46.0 °F35.1 °F66 %29.49 in10.0 miWest (260°)12.7 mphPartly Cloudy
2:53 PM46.9 °F34.0 °F61 %29.45 in10.0 miWSW (250°)16.1 mphPartly Cloudy
3:53 PM48.0 °F34.0 °F58 %29.45 in10.0 miWest (260°)19.6 mph24.2 mphPartly Cloudy
4:53 PM48.2 °F35.6 °F62 %29.42 in10.0 miWest (280°)18.4 mphScattered Clouds
5:53 PM46.4 °F35.6 °F66 %29.42 in10.0 miWNW (300°)10.4 mphScattered Clouds
6:53 PM43.0 °F34.0 °F71 %29.45 in10.0 miWNW (290°)18.4 mphScattered Clouds
7:53 PM37.9 °F33.1 °F83 %29.48 in10.0 miWest (280°)12.7 mphMostly Cloudy
8:53 PM36.0 °F32.0 °F86 %29.49 in10.0 miWNW (290°)8.1 mphMostly Cloudy
9:53 PM36.0 °F30.9 °F82 %29.50 in10.0 miWest (280°)12.7 mphMostly Cloudy
10:53 PM37.0 °F30.0 °F76 %29.50 in10.0 miWNW (290°)21.9 mphMostly Cloudy
11:53 PM35.1 °F30.0 °F82 %29.51 in10.0 miWest (280°)16.1 mphClear
Hourly data recorded from KGFK, located miles away from Larimore, North Dakota







STORIES FROM OUR PARTNERS